Tok, AK

3:40 PM AKST on January 21, 2017 (GMT -0900)
Eagle

Weather History for PAEG - February, 2014

Change the Weather History Date:

Thursday, February 6, 2014

  Actual Average (PABN) Record (PABN)
Temperature  
Mean Temperature 3 °F -  
Max Temperature 5 °F 9 °F 51 °F (2007)
Min Temperature 0 °F 2 °F -31 °F (2008)
Degree Days  
Heating Degree Days 62    
Moisture  
Dew Point -3 °F    
Average Humidity 77    
Maximum Humidity 85    
Minimum Humidity 66    
Precipitation  
Precipitation 0.05 in - - ()
Sea Level Pressure  
Sea Level Pressure 30.16 in    
Wind  
Wind Speed 5 mph (SE)    
Max Wind Speed 20 mph    
Max Gust Speed 33 mph    
Visibility 4 miles    
Events Snow    
Averages and records for this station are not official NWS values.
T = Trace of Precipitation, MM = Missing Value Source: NWS Daily Summary

Daily Weather History Graph

Daily Weather History Graph

Search for Another Location

Airport or City:

Trip Planner

Search our weather history database for the weather conditions in past years. The results will help you decide how hot, cold, wet, or windy it might be!

Date:

Astronomy

Feb. 06, 2014 Rise Set
Actual Time 8:52 AM AKST 4:25 PM AKST
Civil Twilight 7:56 AM AKST 5:21 PM AKST
Nautical Twilight 6:57 AM AKST 6:21 PM AKST
Astronomical Twilight 6:01 AM AKST 7:17 PM AKST
Moon 9:52 AM AKST (2/6) 2:22 AM AKST (2/6)
Length of Visible Light 9h 25m
Length of Day
7h 32m
Waxing Crescent, 51% of the Moon is Illuminated
Feb 6
Waxing Crescent
Feb 14
Full
Feb 22
Last Quarter
Feb 28
New
Mar 8
First Quarter

Hourly Weather History & Observations

Time (AKST) Temp. Windchill Dew Point Humidity Pressure Visibility Wind Dir Wind Speed Gust Speed Precip Events Conditions
12:53 AM 3.9 °F -6.9 °F -4.0 °F 70% 30.63 in 8.0 mi Variable 5.8 mph - 0.00 in Snow Light Snow
1:53 AM 3.0 °F - -4.0 °F 73% 30.60 in 10.0 mi Calm Calm - 0.00 in   Overcast
2:29 AM 3.0 °F - -4.0 °F 73% 30.51 in 9.0 mi Calm Calm - 0.00 in Snow Light Snow
3:19 AM 1.9 °F -9.2 °F -5.1 °F 72% 30.49 in 8.0 mi South 5.8 mph - 0.00 in Snow Light Snow
3:28 AM 3.0 °F -6.4 °F -5.1 °F 69% 30.48 in 9.0 mi Variable 4.6 mph - 0.00 in Snow Light Snow
3:53 AM 1.9 °F - -4.0 °F 76% 30.55 in 9.0 mi Calm Calm - 0.00 in   Overcast
4:53 AM 1.9 °F -7.6 °F -5.1 °F 72% 30.49 in 10.0 mi South 4.6 mph - N/A   Overcast
5:53 AM 1.9 °F -5.6 °F -5.1 °F 72% 30.45 in 10.0 mi SSE 3.5 mph - N/A   Overcast
6:53 AM 3.0 °F -8.0 °F -6.0 °F 66% 30.39 in 10.0 mi Variable 5.8 mph - N/A   Partly Cloudy
7:53 AM 3.0 °F -13.3 °F -6.0 °F 66% 30.35 in 10.0 mi ESE 11.5 mph 20.7 mph N/A   Clear
8:53 AM 1.9 °F -16.9 °F -7.1 °F 66% 30.30 in 10.0 mi SE 15.0 mph 25.3 mph N/A   Overcast
9:53 AM 3.9 °F -9.4 °F -4.0 °F 70% 30.25 in 4.0 mi SE 8.1 mph 17.3 mph 0.00 in Snow Light Snow
10:00 AM 3.9 °F -10.4 °F -4.0 °F 70% 30.17 in 1.8 mi SE 9.2 mph - 0.00 in Snow Light Snow
10:09 AM 3.9 °F -12.2 °F -4.0 °F 70% 30.15 in 0.8 mi ESE 11.5 mph 21.9 mph 0.00 in Snow Light Snow
10:53 AM 3.0 °F -13.3 °F -4.0 °F 73% 30.18 in 0.5 mi SE 11.5 mph 24.2 mph 0.00 in Snow Snow
11:23 AM 1.9 °F -16.9 °F -5.1 °F 72% 30.06 in 1.2 mi SE 15.0 mph 29.9 mph 0.01 in Snow Light Snow
11:30 AM 1.9 °F -18.1 °F -5.1 °F 72% 30.05 in 1.0 mi SE 17.3 mph 33.4 mph 0.01 in Snow Light Snow
11:53 AM 1.9 °F -19.2 °F -5.1 °F 72% 30.09 in 0.8 mi ESE 19.6 mph 33.4 mph 0.01 in Snow Light Snow
12:53 PM 1.9 °F -19.2 °F -4.0 °F 76% 30.05 in 0.5 mi ESE 19.6 mph 33.4 mph 0.00 in Snow Snow
1:53 PM 3.9 °F -8.2 °F -2.0 °F 76% 30.06 in 0.5 mi SE 6.9 mph - 0.00 in Snow Snow
2:01 PM 5.0 °F -2.1 °F -0.9 °F 76% 29.99 in 0.2 mi Variable 3.5 mph - 0.01 in Snow Heavy Snow
2:09 PM 5.0 °F -2.1 °F -0.0 °F 80% 29.99 in 0.8 mi Variable 3.5 mph - 0.01 in Snow Light Snow
2:24 PM 5.0 °F -4.1 °F -0.0 °F 80% 29.99 in 1.0 mi West 4.6 mph - 0.01 in Snow Light Snow
2:40 PM 5.0 °F - -0.9 °F 76% 30.00 in 0.8 mi Calm Calm - 0.01 in Snow Light Snow
2:53 PM 5.0 °F - -0.9 °F 76% 30.07 in 0.8 mi Calm Calm - 0.01 in Snow Light Snow
3:05 PM 5.0 °F - -0.0 °F 80% 29.99 in 1.2 mi Calm Calm - 0.01 in Snow Light Snow
3:21 PM 5.0 °F - -0.0 °F 80% 29.99 in 0.5 mi Calm Calm - 0.01 in Snow Snow
3:51 PM 5.0 °F - -0.4 °F 78% 29.99 in 1.2 mi Calm Calm - 0.02 in Snow Light Snow
3:53 PM 5.0 °F - -0.0 °F 80% 30.06 in 1.2 mi Calm Calm - 0.02 in Snow Light Snow
4:20 PM 5.0 °F - -0.9 °F 76% 29.98 in 2.5 mi Calm Calm - 0.00 in Snow Light Snow
4:27 PM 5.0 °F - -0.0 °F 80% 29.98 in 4.0 mi Calm Calm - 0.00 in Snow Light Snow
4:43 PM 3.9 °F - -0.0 °F 84% 29.98 in 3.0 mi Calm Calm - 0.00 in Snow Light Snow
4:53 PM 3.9 °F - -0.0 °F 84% 30.06 in 4.0 mi Calm Calm - 0.00 in Snow Light Snow
5:53 PM 3.9 °F - -0.0 °F 84% 30.06 in 5.0 mi Calm Calm - 0.00 in Snow Light Snow
6:53 PM 3.0 °F - -0.9 °F 84% 30.08 in 6.0 mi Calm Calm - 0.00 in   Overcast
7:29 PM 3.0 °F - -2.0 °F 80% 30.01 in 2.5 mi Calm Calm - 0.00 in Snow Light Snow
7:39 PM 3.0 °F - -2.0 °F 80% 30.02 in 1.5 mi Calm Calm - 0.00 in Snow Light Snow
7:53 PM 3.0 °F - -0.9 °F 84% 30.10 in 1.5 mi Calm Calm - 0.00 in Snow Light Snow
8:48 PM 3.2 °F - -0.4 °F 85% 30.05 in 2.0 mi Calm Calm - 0.01 in Snow Light Snow
8:53 PM 3.0 °F - -0.9 °F 84% 30.13 in 3.0 mi Calm Calm - 0.01 in Snow Light Snow
9:13 PM 3.0 °F - -2.0 °F 80% 30.06 in 2.0 mi Calm Calm - 0.00 in Snow Light Snow
9:51 PM 3.2 °F - -2.2 °F 78% 30.07 in 2.0 mi Calm Calm - 0.00 in Snow Light Snow
9:53 PM 3.0 °F - -2.0 °F 80% 30.15 in 1.8 mi Calm Calm - 0.00 in Snow Light Snow
10:03 PM 1.9 °F - -2.0 °F 83% 30.08 in 2.5 mi Calm Calm - 0.00 in Snow Light Snow
10:06 PM 1.9 °F - -2.0 °F 83% 30.08 in 3.0 mi Calm Calm - 0.00 in Snow Light Snow
10:53 PM 1.0 °F - -2.9 °F 83% 30.17 in 7.0 mi Calm Calm - 0.00 in   Overcast
11:53 PM -0.9 °F - -6.0 °F 79% 30.19 in 10.0 mi Calm Calm - N/A   Overcast